Regional Weather Roundup
Issued by NWS Sioux Falls, SD

Home | Current Version | Previous Version | Text Only | Print | Product List | Glossary On
Versions: 1 2 3 4 5 6 7 8 9 10 11 12 13 14 15 16 17 18 19 20 21 22 23 24 25 26 27 28 29 30 31 32 33 34 35 36 37 38 39 40 41 42 43 44 45 46 47 48 49 50
000
ASUS43 KFSD 010710
RWRFSD

WEATHER ROUNDUP FOR SE SOUTH DAKOTA/SW MINNESOTA/NW IOWA
NATIONAL WEATHER SERVICE SIOUX FALLS SD
100 AM CST SUN MAR 01 2015

NOTE: "FAIR" INDICATES FEW OR NO CLOUDS BELOW 12,000 FEET WITH NO
SIGNIFICANT WEATHER AND OR OBSTRUCTIONS TO VISIBILITY.


SDZ038>040-050-052>070-010800-
SOUTHEAST SOUTH DAKOTA

CITY           SKY/WX    TMP DP  RH WIND       PRES   REMARKS
CHAMBERLAIN    PTCLDY    15  11  83 CALM      30.25S
HURON          CLEAR      5   2  87 W3        30.27R
MADISON        FAIR       9   9 100 NW9       30.21S WCI  -5
MITCHELL       CLEAR     14   9  80 NW10      30.28R WCI   1
SIOUX FALLS    CLEAR     16  10  77 W3        30.24R
WINNER         FAIR      16   1  51 CALM      30.24S
YANKTON        PTCLDY    18  10  73 SW8       30.28S WCI   7
$$

MNZ071-072-080-081-089-090-097-098-010800-
SOUTHWEST MINNESOTA

CITY           SKY/WX    TMP DP  RH WIND       PRES   REMARKS
FAIRMONT       CLEAR     10   7  85 S9        30.26S WCI  -2
JACKSON        CLEAR     14  10  85 S12       30.25S WCI   0
LUVERNE        CLEAR     12  10  92 S3        30.25R
MARSHALL       PTCLDY    18   9  68 SW22      30.22R WCI   0
MONTEVIDEO     MOCLDY    18  12  79 NW9       30.22R WCI   6
PIPESTONE      PTCLDY     9   7  92 W3        30.20S
REDWOOD FALLS  FAIR      15  11  83 S12       30.23S WCI   2
TRACY          PTCLDY    17  13  82 SW20G25   30.22R WCI   1
WINDOM         CLEAR     16  12  86 S13G22    30.23S WCI   2
WORTHINGTON    CLEAR     21   9  58 S15       30.25R WCI   8
$$

IAZ001>003-012>014-020>022-031-032-NEZ013-014-SDZ071-010800-
NORTHWEST IOWA

CITY           SKY/WX    TMP DP  RH WIND       PRES   REMARKS
CHEROKEE       CLEAR     13  12  96 S8        30.31R WCI   2
DENISON        PTCLDY    16  16 100 SW5       30.31R WCI   9
ESTHERVILLE    CLEAR     11   8  88 S12       30.27F WCI  -3
LE MARS        CLEAR     14  12  92 S8        30.31R WCI   3
ORANGE CITY    CLEAR     14  10  85 S9        30.28R WCI   2
SHELDON        CLEAR     12  12 100 S10       30.26R WCI  -1
SIOUX CITY     CLEAR     18  13  80 S8        30.32R WCI   8
SPENCER        CLEAR     10   6  84 S7        30.28S WCI  -1
STORM LAKE     CLEAR     10   9  92 S9        30.30R WCI  -2
$$

ABBREVIATIONS USED IN REMARKS
   TC - TEMPERATURE IN CELSIUS
  WCI - WIND CHILL INDEX
   HX - HEAT INDEX
  VSB - VISIBILITY




USA.gov is the U.S. government's official web portal to all federal, state and local government web resources and services.